Roanoke, VA

3:15 AM EST on December 15, 2019 (GMT -0500)
Roanoke Regional-Woodrum

Weather History for KROA - October, 2019

Change the Weather History Date:

Thursday, October 24, 2019

  Actual Average Record
Temperature  
Mean Temperature 52 °F 55 °F  
Max Temperature 68 °F 67 °F 85 °F (2001)
Min Temperature 36 °F 44 °F 24 °F (1969)
Degree Days  
Heating Degree Days 13 10  
Month to date heating degree days 115 171  
Since 1 July heating degree days 116 220  
Cooling Degree Days 0 0  
Month to date cooling degree days 73 18  
Year to date cooling degree days 1757 1204  
Growing Degree Days 2 (Base 50)    
Moisture  
Dew Point 38 °F    
Average Humidity 63    
Maximum Humidity 92    
Minimum Humidity 32    
Precipitation  
Precipitation 0.00 in 0.10 in 2.16 in (2007)
Month to date precipitation 3.85 2.21  
Year to date precipitation 35.91 34.23  
Snow  
Snow 0.00 in - - ()
Month to date snowfall 0.0  
Since 1 July snowfall T  
Since 1 September snowfall 0.0  
Snow Depth 0.00 in    
Sea Level Pressure  
Sea Level Pressure 30.32 in    
Wind  
Wind Speed 2 mph ()    
Max Wind Speed 10 mph    
Max Gust Speed 14 mph    
Visibility 10.0 miles    
Events      
T = Trace of Precipitation, MM = Missing Value Source: Averaged Metar Reports

Daily Weather History Graph

Daily Weather History Graph

Search for Another Location

Airport or City:

Astronomy

Oct. 24, 2019 Rise Set
Actual Time 7:36 AM EDT 6:31 PM EDT
Civil Twilight 7:09 AM EDT 6:58 PM EDT
Nautical Twilight 6:39 AM EDT 7:28 PM EDT
Astronomical Twilight 6:08 AM EDT 7:58 PM EDT
Moon 3:12 AM EDT (10/24) 4:51 PM EDT (10/24)
Length of Visible Light 11h 48m
Length of Day
10h 55m
Waning Crescent, 17% of the Moon is Illuminated
Oct 24
Waning Crescent
Oct 27
New
Nov 4
First Quarter
Nov 12
Full
Nov 19
Last Quarter

Hourly Weather History & Observations

Time (EDT) Temp. Windchill Dew Point Humidity Pressure Visibility Wind Dir Wind Speed Gust Speed Precip Events Conditions
12:54 AM 43.0 °F 41.3 °F 37.0 °F 80% 30.27 in 10.0 mi North 3.5 mph - N/A   Clear
1:54 AM 41.0 °F 38.0 °F 36.0 °F 82% 30.29 in 10.0 mi North 4.6 mph - N/A   Clear
2:54 AM 42.1 °F 40.2 °F 37.0 °F 82% 30.29 in 10.0 mi Variable 3.5 mph - N/A   Clear
3:54 AM 41.0 °F 39.0 °F 36.0 °F 82% 30.29 in 10.0 mi NE 3.5 mph - N/A   Clear
4:54 AM 37.9 °F - 35.1 °F 89% 30.31 in 10.0 mi Calm Calm - N/A   Clear
5:54 AM 37.9 °F 35.5 °F 35.1 °F 89% 30.32 in 10.0 mi WNW 3.5 mph - N/A   Clear
6:54 AM 39.9 °F 37.8 °F 36.0 °F 86% 30.33 in 10.0 mi ENE 3.5 mph - N/A   Clear
7:54 AM 39.9 °F - 35.1 °F 83% 30.35 in 10.0 mi Calm Calm - N/A   Clear
8:54 AM 43.0 °F - 36.0 °F 76% 30.38 in 10.0 mi Calm Calm - N/A   Clear
9:54 AM 48.0 °F - 37.9 °F 68% 30.38 in 10.0 mi Calm Calm - N/A   Clear
10:54 AM 53.1 °F - 39.9 °F 61% 30.38 in 10.0 mi Calm Calm - N/A   Clear
11:54 AM 59.0 °F - 37.0 °F 44% 30.37 in 10.0 mi Calm Calm - N/A   Clear
12:54 PM 62.1 °F - 37.0 °F 39% 30.34 in 10.0 mi South 4.6 mph - N/A   Clear
1:54 PM 64.9 °F - 37.0 °F 36% 30.31 in 10.0 mi Calm Calm - N/A   Clear
2:54 PM 66.0 °F - 36.0 °F 33% 30.29 in 10.0 mi Variable 3.5 mph - N/A   Clear
3:54 PM 66.9 °F - 37.0 °F 33% 30.28 in 10.0 mi Variable 3.5 mph - N/A   Clear
4:54 PM 66.9 °F - 37.0 °F 33% 30.28 in 10.0 mi ESE 5.8 mph - N/A   Clear
5:54 PM 64.9 °F - 37.9 °F 37% 30.28 in 10.0 mi ESE 5.8 mph - N/A   Clear
6:54 PM 62.1 °F - 39.0 °F 43% 30.30 in 10.0 mi ESE 6.9 mph - N/A   Clear
7:54 PM 59.0 °F - 39.0 °F 48% 30.31 in 10.0 mi ESE 4.6 mph - N/A   Clear
8:54 PM 57.0 °F - 39.9 °F 53% 30.33 in 10.0 mi Calm Calm - N/A   Clear
9:54 PM 51.1 °F - 42.1 °F 71% 30.35 in 10.0 mi Variable 3.5 mph - N/A   Clear
10:54 PM 48.0 °F - 42.1 °F 80% 30.35 in 10.0 mi Calm Calm - N/A   Clear
11:54 PM 46.9 °F - 42.1 °F 83% 30.35 in 10.0 mi Calm Calm - N/A   Clear